Location: Boise
(43.6140°N, 116.2030°W)
Time: 00:06:40
(UTC-06:00)

ISS - Visible Passes

Search period start: 25 March 2019 00:00
Search period end: 04 April 2019 00:00
Orbit: 408 x 411 km, 51.6° (Epoch: 25 March)

Date Brightness Start Highest point End Pass type
(mag) Time Alt. Az. Time Alt. Az. Time Alt. Az.
25 Mar -2.8 20:58:48 10° W 21:01:59 46° NNW 21:05:12 10° NE visible
25 Mar -1.1 22:36:35 10° WNW 22:38:18 19° NNW 22:38:18 19° NNW visible
26 Mar -1.7 21:45:36 10° WNW 21:48:19 23° NNW 21:49:52 17° NNE visible
27 Mar -2.0 20:54:35 10° WNW 20:57:30 28° NNW 21:00:25 10° NE visible
27 Mar -1.3 22:32:18 10° NW 22:34:08 19° NNW 22:34:08 19° NNW visible
28 Mar -1.5 21:41:26 10° NW 21:43:57 20° N 21:45:34 15° NE visible
29 Mar -1.6 20:50:27 10° WNW 20:53:05 21° N 20:55:41 10° NE visible
29 Mar -1.5 22:27:41 10° NW 22:29:42 22° N 22:29:42 22° N visible
30 Mar -1.7 21:36:58 10° NW 21:39:33 21° N 21:41:02 16° NE visible
30 Mar -0.3 23:13:28 10° NW 23:13:48 12° NW 23:13:48 12° NW visible
31 Mar -1.6 20:46:07 10° NW 20:48:39 20° N 20:51:10 10° NE visible
31 Mar -2.1 22:22:51 10° NW 22:25:07 29° N 22:25:07 29° N visible
01 Apr -2.2 21:32:13 10° NW 21:35:04 26° NNE 21:36:26 19° NE visible
01 Apr -0.6 23:08:37 10° WNW 23:09:11 14° WNW 23:09:11 14° WNW visible
02 Apr -1.9 20:41:30 10° NW 20:44:10 22° N 20:46:49 10° ENE visible
02 Apr -2.9 22:17:56 10° NW 22:20:31 47° NNW 22:20:31 47° NNW visible
03 Apr -3.0 21:27:17 10° NW 21:30:26 40° NNE 21:31:51 25° ENE visible
03 Apr -0.7 23:03:58 10° WNW 23:04:37 14° W 23:04:37 14° W visible
